Regional Weather Roundup
Issued by NWS

Home | Current Version | Previous Version | Text Only | Print | Product List | Glossary On
Versions: 1 2 3 4 5 6 7 8 9 10 11 12 13 14 15 16 17 18 19 20 21 22 23 24 25 26 27 28 29 30 31 32 33 34 35 36 37 38 39 40 41 42 43 44 45 46 47 48 49 50
000
ASUS43 KMPX 180110
RWRMN
WEATHER ROUNDUP FOR MINNESOTA
NATIONAL WEATHER SERVICE TWIN CITIES/CHANHASSEN MN
800 PM CDT THU AUG 17 2017


NOTE: "FAIR" INDICATES FEW OR NO CLOUDS BELOW 12,000 FEET WITH NO
SIGNIFICANT WEATHER AND/OR OBSTRUCTIONS TO VISIBILITY. N/A MEANS
CURRENT SKY AND/OR WEATHER CONDITIONS ARE NOT AVAILABLE.

MNZ060>063-068>070-180200-
   Twin Cities Metro

CITY           SKY/WX    TMP DP  RH WIND       PRES   REMARKS
TWIN CITIES    MOCLDY    71  60  68 NW8       29.80R
ST PAUL        CLOUDY    70  62  76 NW15G22   29.79R
CRYSTAL        CLOUDY    71  58  63 NW12G20   29.79R
BLAINE         MOCLDY    72  63  73 NW10G16   29.80R
LAKEVILLE      PTCLDY    68  61  77 NW10G18   29.81R
EDEN PRAIRIE   CLEAR     71  61  70 NW9       29.80R
SOUTH ST PAUL  CLOUDY    71  62  72 NW13      29.79R
LAKE ELMO      CLOUDY    70  63  78 NW8G16    29.80R
$$
MNZ001>005-007-008-013>017-022>024-027-028-180200-
   Northwest Minnesota

CITY           SKY/WX    TMP DP  RH WIND       PRES   REMARKS
BEMIDJI        CLEAR     68  58  71 CALM      29.84S
HALLOCK        CLEAR     75  54  46 W3        29.81S
ROSEAU         CLEAR     73  63  68 NW3       29.82S
WARROAD        CLEAR     72  64  78 CALM      29.82S
THIEF RVR FALL CLEAR     72  58  61 NW5       29.84F
CROOKSTON      CLEAR     73  57  56 CALM      29.83F
FOSSTON        CLEAR     72  57  60 NW3       29.85S
DETROIT LAKES  CLEAR     70  61  73 NW3       29.87S
MOORHEAD       CLEAR     72  63  73 CALM      29.84F
PARK RAPIDS    CLEAR     71  59  65 N5        29.85R
MAHNOMEN       FAIR      69  60  73 NW5       29.85S
$$
MNZ006-009>011-018-025>026-180200-
   North Central Minnesota

CITY           SKY/WX    TMP DP  RH WIND       PRES   REMARKS
BAUDETTE       CLEAR     69  59  70 W3        29.81S
FLAG ISLAND    CLEAR     73  55  53 NW3       29.80S
INTL FALLS     MOCLDY    64  59  83 W3        29.81R
WASKISH        CLEAR     70  57  64 CALM      29.83S
BIG FORK       CLEAR     61  57  88 CALM      29.83R
LONGVILLE      CLEAR     64  57  77 NW3       29.84R
GRAND RAPIDS   CLEAR     63  59  87 N9        29.84S
CRANE LAKE     CLOUDY    63  59  88 NW3       29.81S
ORR            CLOUDY    63  57  82 NW6       29.79R
COOK           CLOUDY    63  59  88 CALM      29.81S
WALKER         FAIR      65  58  78 CALM      29.85R
$$
MNZ012-019>021-037-180200-
   Northeast Minnesota

CITY           SKY/WX    TMP DP  RH WIND       PRES   REMARKS
DULUTH         CLOUDY    61  60  97 NW12G20   29.77R
ELY            CLOUDY    61  59  94 NW6       29.77S
HIBBING        CLOUDY    62  59  90 NW13      29.80R
EVELETH        CLOUDY    63  57  82 NW6G17    29.80S
DULUTH HARBOR  CLOUDY    66  63  88 NW12G20   29.76R
TWO HARBORS    MOCLDY    66  61  82 VRB5      29.72S
SILVER BAY     CLOUDY    64  61  88 NW5       29.71
GRAND MARAIS     N/A     63  61  93 SW5       29.66R
G MARAIS ARPRT RAIN      57  54  88 NW9G16    29.70R
$$
MNZ029>031-032-039>041-046>048-054>057-064-180200-
   West Central Minnesota

CITY           SKY/WX    TMP DP  RH WIND       PRES   REMARKS
FERGUS FALLS   CLEAR     70  61  73 NW5       29.84S
WHEATON        CLEAR     72  61  68 CALM      29.87S
MORRIS         CLEAR     72  64  78 NW6       29.85S
ALEXANDRIA     CLEAR     69  60  73 N6        29.87R
ELBOW LAKE     FAIR      69  62  79 W5        29.86S HAZE
WADENA         CLEAR     68  61  77 CALM      29.85R
GLENWOOD       CLEAR     68  61  77 NW3       29.86S
APPLETON       CLEAR     72  61  68 NW3       29.85S
BENSON         CLEAR     70  63  78 N5        29.86S
ORTONVILLE     CLEAR     72  61  68 MISG      29.86S
MADISON        CLEAR     73  63  68 N3        29.86S
WILLMAR        FAIR      72  64  78 NW5       29.86S
$$
MNZ033>034-036-042>043-049>051-058-059-180200-
   Central Minnesota

CITY           SKY/WX    TMP DP  RH WIND       PRES   REMARKS
ST CLOUD       CLEAR     68  61  78 NW6       29.82R
SAUK CENTRE    FAIR      69  59  71 NW7       29.85R
PAYNESVILLE    CLEAR     69  63  79 NW3       29.84S
AITKIN         CLEAR     64  57  77 NW5       29.81S
PINE RIVER     CLEAR     64  55  72 N3        29.88R
BRAINERD       CLEAR     67  57  70 NW10      29.84R
STAPLES        CLEAR     68  57  68 N3        29.85R
LONG PRAIRIE   FAIR      68  57  68 W5        29.85S
LITTLE FALLS   CLEAR     68  57  68 NW5       29.84R
LITCHFIELD     CLEAR     72  63  73 NW7       29.85R
BUFFALO        PTCLDY    70  59  68 NW8       29.83R
MAPLE LAKE     CLEAR     70  62  78 NW6       29.83S
HUTCHINSON     CLEAR     71  62  74 NW7       29.85R
$$
MNZ037-044-045-052-053-180200-
   East Central Minnesota

CITY           SKY/WX    TMP DP  RH WIND       PRES   REMARKS
PRINCETON      PTCLDY    70  61  73 NW9       29.82R
MORA           CLOUDY    64  59  82 NW9       29.82R
RUSH CITY      RAIN      67  60  78 NW8       29.80R
MOOSE LAKE     CLOUDY    63  59  88 NW7       29.79R
HINCKLEY       CLOUDY    66  61  82 NW7       29.80R
CLOQUET        CLOUDY    63  57  82 NW9       29.79R
MCGREGOR       CLOUDY    64  61  88 NW7       29.82R
$$
MNZ071>073-080-081-089-090-097-098-180200-
   Southwest Minnesota

CITY           SKY/WX    TMP DP  RH WIND       PRES   REMARKS
MONTEVIDEO     CLEAR     72  64  78 CALM      29.86S
GRANITE FALLS  CLEAR     71  65  80 W3        29.87S
CANBY          CLEAR     72  60  65 CALM      29.88S
MARSHALL       CLEAR     71  63  75 NW5       29.88R
REDWOOD FALLS  CLEAR     71  61  70 NW7       29.84F
OLIVIA         CLEAR     70  63  78 NW5       29.84F
PIPESTONE      CLEAR     73  61  64 CALM      29.90S
WINDOM         CLEAR     68  63  83 CALM      29.88S
WORTHINGTON    CLEAR     70  63  78 W5        29.90R
JACKSON        CLEAR     68  61  77 CALM      29.89R
TRACY          CLEAR     69  62  78 N5        29.88S
SLAYTON        CLEAR     71  55  57 NW6       29.90S
$$
MNZ065>067-074>077-082>085-091>093-180200-
   South Central Minnesota

CITY           SKY/WX    TMP DP  RH WIND       PRES   REMARKS
MANKATO        PTCLDY    70  62  76 NW6       29.84R
NEW ULM        CLEAR     70  61  73 NW6       29.85R
ST JAMES       CLEAR     70  63  78 W6        29.87R
FAIRMONT       CLEAR     70  63  78 NW6       29.86S
GLENCOE        PTCLDY    70  65  86 W6        29.83R
FARIBAULT      CLOUDY    70  63  78 NW6       29.83R
OWATONNA       CLOUDY    70  63  78 NW9       29.83R
WASECA         MOCLDY    70  63  78 NW3       29.85R
ALBERT LEA     MOCLDY    72  64  78 W6        29.84S
$$
MNZ078>079-086>088-094>096-180200-
   Southeast Minnesota

CITY           SKY/WX    TMP DP  RH WIND       PRES   REMARKS
ROCHESTER      PTCLDY    67  64  90 W12       29.81R
RED WING       CLOUDY    72  61  68 NW7       29.77R
STANTON        CLOUDY    70  62  75 NW8       29.80R
DODGE CENTER   PTCLDY    66  63  88 W9        29.83R
WINONA         CLOUDY    72  63  73 NW10G16   29.76R
AUSTIN         CLOUDY    70  63  78 NW9G17    29.83R
PRESTON        PTCLDY    67  62  85 NW12      29.81R
$$
ABBREVIATIONS USED IN REMARKS
   TC - TEMPERATURES IN CELSIUS
  WCI - WIND CHILL INDEX
   HX - HEAT INDEX
  VSB - VISIBILITY
$$



USA.gov is the U.S. government's official web portal to all federal, state and local government web resources and services.